Location: Unspecified
(51.0000°N, 12.0000°E)
Time: 00:06:30
(UTC+01:00)

ISS - Pass Details

Date: 30 November 2020
Orbit: 418 x 419 km, 51.6° (Epoch: 18 January)

Event Time Altitude Azimuth Distance (km) Brightness Sun altitude
Rises 18:04:21 0° 275° (W) 2,369 1.5 -17.3°
Reaches altitude 10° 18:06:27 10° 276° (W) 1,504 0.1 -17.6°
Maximum altitude 18:09:50 79° 4° (N) 432 -3.8 -18.1°
Enters shadow 18:10:19 62° 73° (ENE) 478 -3.9 -18.2°
